Darstellungsparameter: Aktuell verwendete Einstellungen:
Skalierung der Graphiken ... ?
xyx+y,   Skalierungsfaktor:      Skalierung: Modus: x, Faktor: 1
Darstellungszeitraum ... ?
Vom - - bis: - -   Zeitraum: 25.02.2020 - 25.02.2020
Min/Max/Avg-Anzeige ... ?
Zeige MMA aktuell
Zeige MMA Monat
Zeige MMA alles
Zeige --A aktuell
Zeige --A Monat
Zeige --A alles
Keine MMA-Anzeige
MMA:
Average (ber die Originaldaten)
MMA-Basis: 25.02.2020 - 25.02.2020
Quicknavigation für Darstellung... ?
Tage:      1T, 2T, 3T, 5T -1T -2T -3T -5T +1T +2T +3T +5T
Wochen: 1W, 2W, 3W -1W -2W -3W +1W +2W +3W
Monate: 1M, 3M, 6M -1M -3M -6M +1M +3M +6M
Jahre:    1J, 3J, 5J, 10J -1J -3J -5J -10J +1J +3J +5J +10J
Nutze für die Darstellung ... ?
Originaldaten oder Mittelwerte auf ...
Stundenbasis Tagesbasis Wochenbasis
Monatsbasis Jahresbasis      Datenbasis: Original-Daten
Darstellen als:
Statistik (Auto) Statistik J:M      Darstellung:
Zur Graphik,    zurück zur Übersicht aller Sensoren.
 
Tabellarische Datenbersicht: ?
 
Sensor: Nr:Datum:Temp:Abs-Feuchte:Windchill:Wind:
Aussen-T/F 1 25-02-2020 00:00:00 11.1 C 8.46 g/m*3 11.1 C 14.5 km/h
2 25-02-2020 00:05:00 11 C 8.41 g/m*3 9.02 C 16.1 km/h
3 25-02-2020 00:10:00 11 C 8.51 g/m*3 8.86 C 17.7 km/h
4 25-02-2020 00:15:00 11 C 8.51 g/m*3 9.63 C 11.3 km/h
5 25-02-2020 00:20:00 10.9 C 8.45 g/m*3 9.51 C 11.3 km/h
6 25-02-2020 00:25:00 10.9 C 8.45 g/m*3 8.9 C 16.1 km/h
7 25-02-2020 00:30:00 10.8 C 8.4 g/m*3 9.93 C 8.1 km/h
8 25-02-2020 00:35:00 10.8 C 8.5 g/m*3 10.8 C 4.8 km/h
9 25-02-2020 00:40:00 10.8 C 8.5 g/m*3 8.96 C 14.5 km/h
10 25-02-2020 00:45:00 10.8 C 8.5 g/m*3 8.61 C 17.7 km/h
11 25-02-2020 00:50:00 10.8 C 8.5 g/m*3 8.45 C 19.3 km/h
12 25-02-2020 00:55:00 10.8 C 8.5 g/m*3 9.16 C 12.9 km/h
13 25-02-2020 01:00:00 10.8 C 8.5 g/m*3 9.16 C 12.9 km/h
14 25-02-2020 01:05:00 10.8 C 8.5 g/m*3 9.16 C 12.9 km/h
15 25-02-2020 01:10:00 10.8 C 8.5 g/m*3 8.96 C 14.5 km/h
16 25-02-2020 01:15:00 10.8 C 8.5 g/m*3 9.38 C 11.3 km/h
17 25-02-2020 01:20:00 10.8 C 8.5 g/m*3 9.16 C 12.9 km/h
18 25-02-2020 01:25:00 10.8 C 8.5 g/m*3 8.96 C 14.5 km/h
19 25-02-2020 01:30:00 10.8 C 8.5 g/m*3 8.78 C 16.1 km/h
20 25-02-2020 01:35:00 10.8 C 8.5 g/m*3 9.16 C 12.9 km/h
21 25-02-2020 01:40:00 10.8 C 8.5 g/m*3 9.38 C 11.3 km/h
22 25-02-2020 01:45:00 10.8 C 8.5 g/m*3 8.45 C 19.3 km/h
23 25-02-2020 01:50:00 10.8 C 8.5 g/m*3 9.38 C 11.3 km/h
24 25-02-2020 01:55:00 10.8 C 8.5 g/m*3 8.3 C 20.9 km/h
25 25-02-2020 02:00:00 10.8 C 8.5 g/m*3 7.92 C 25.7 km/h
Sensor: Nr:Datum:Temp:Abs-Feuchte:Windchill:Wind:
Aussen-T/F 26 25-02-2020 02:05:00 10.8 C 8.5 g/m*3 9.16 C 12.9 km/h
27 25-02-2020 02:10:00 10.8 C 8.5 g/m*3 9.16 C 12.9 km/h
28 25-02-2020 02:15:00 10.7 C 8.45 g/m*3 9.26 C 11.3 km/h
29 25-02-2020 02:20:00 10.7 C 8.55 g/m*3 9.26 C 11.3 km/h
30 25-02-2020 02:25:00 10.7 C 8.55 g/m*3 9.52 C 9.7 km/h
31 25-02-2020 02:30:00 10.7 C 8.55 g/m*3 9.04 C 12.9 km/h
32 25-02-2020 02:35:00 10.7 C 8.55 g/m*3 9.26 C 11.3 km/h
33 25-02-2020 02:40:00 10.7 C 8.55 g/m*3 9.04 C 12.9 km/h
34 25-02-2020 02:45:00 10.7 C 8.55 g/m*3 9.04 C 12.9 km/h
35 25-02-2020 02:50:00 10.6 C 8.49 g/m*3 9.4 C 9.7 km/h
36 25-02-2020 02:55:00 10.6 C 8.49 g/m*3 8.92 C 12.9 km/h
37 25-02-2020 03:00:00 10.6 C 8.49 g/m*3 9.14 C 11.3 km/h
38 25-02-2020 03:05:00 10.6 C 8.49 g/m*3 9.4 C 9.7 km/h
39 25-02-2020 03:10:00 10.5 C 8.53 g/m*3 9.28 C 9.7 km/h
40 25-02-2020 03:15:00 10.4 C 8.48 g/m*3 9.46 C 8.1 km/h
41 25-02-2020 03:20:00 10.4 C 8.48 g/m*3 9.46 C 8.1 km/h
42 25-02-2020 03:25:00 10.3 C 8.43 g/m*3 8.78 C 11.3 km/h
43 25-02-2020 03:30:00 10.3 C 8.43 g/m*3 9.34 C 8.1 km/h
44 25-02-2020 03:35:00 10.3 C 8.43 g/m*3 8.55 C 12.9 km/h
45 25-02-2020 03:40:00 10.3 C 8.43 g/m*3 8.55 C 12.9 km/h
46 25-02-2020 03:45:00 10.3 C 8.43 g/m*3 9.04 C 9.7 km/h
47 25-02-2020 03:50:00 10.3 C 8.43 g/m*3 9.72 C 6.4 km/h
48 25-02-2020 03:55:00 10.3 C 8.43 g/m*3 8.34 C 14.5 km/h
49 25-02-2020 04:00:00 10.3 C 8.43 g/m*3 8.34 C 14.5 km/h
50 25-02-2020 04:05:00 10.3 C 8.43 g/m*3 9.04 C 9.7 km/h
Sensor: Nr:Datum:Temp:Abs-Feuchte:Windchill:Wind:
Aussen-T/F 51 25-02-2020 04:10:00 10.3 C 8.43 g/m*3 8.34 C 14.5 km/h
52 25-02-2020 04:15:00 10.3 C 8.43 g/m*3 9.04 C 9.7 km/h
53 25-02-2020 04:20:00 10.3 C 8.43 g/m*3 9.34 C 8.1 km/h
54 25-02-2020 04:25:00 10.3 C 8.43 g/m*3 7.67 C 20.9 km/h
55 25-02-2020 04:30:00 10.3 C 8.43 g/m*3 8.34 C 14.5 km/h
56 25-02-2020 04:35:00 10.3 C 8.33 g/m*3 8.78 C 11.3 km/h
57 25-02-2020 04:40:00 10.3 C 8.33 g/m*3 8.78 C 11.3 km/h
58 25-02-2020 04:45:00 10.3 C 8.33 g/m*3 8.16 C 16.1 km/h
59 25-02-2020 04:50:00 10.3 C 8.33 g/m*3 8.78 C 11.3 km/h
60 25-02-2020 04:55:00 10.3 C 8.33 g/m*3 8.55 C 12.9 km/h
61 25-02-2020 05:00:00 10.2 C 8.28 g/m*3 8.22 C 14.5 km/h
62 25-02-2020 05:05:00 10.2 C 8.28 g/m*3 8.22 C 14.5 km/h
63 25-02-2020 05:10:00 10.2 C 8.28 g/m*3 8.22 C 14.5 km/h
64 25-02-2020 05:15:00 10.2 C 8.28 g/m*3 8.92 C 9.7 km/h
65 25-02-2020 05:20:00 10.2 C 8.28 g/m*3 8.22 C 14.5 km/h
66 25-02-2020 05:25:00 10.1 C 8.23 g/m*3 8.31 C 12.9 km/h
67 25-02-2020 05:30:00 10.1 C 8.32 g/m*3 8.1 C 14.5 km/h
68 25-02-2020 05:35:00 10.1 C 8.32 g/m*3 7.91 C 16.1 km/h
69 25-02-2020 05:40:00 10.1 C 8.23 g/m*3 7.73 C 17.7 km/h
70 25-02-2020 05:45:00 10.1 C 8.23 g/m*3 8.54 C 11.3 km/h
71 25-02-2020 05:50:00 10.1 C 8.23 g/m*3 8.54 C 11.3 km/h
72 25-02-2020 05:55:00 10.1 C 8.23 g/m*3 8.31 C 12.9 km/h
73 25-02-2020 06:00:00 10.1 C 8.23 g/m*3 8.1 C 14.5 km/h
74 25-02-2020 06:05:00 10.1 C 8.23 g/m*3 7.28 C 22.5 km/h
75 25-02-2020 06:10:00 10.1 C 8.23 g/m*3 7.91 C 16.1 km/h
Sensor: Nr:Datum:Temp:Abs-Feuchte:Windchill:Wind:
Aussen-T/F 76 25-02-2020 06:15:00 10 C 8.17 g/m*3 7.61 C 17.7 km/h
77 25-02-2020 06:20:00 10 C 8.17 g/m*3 7.15 C 22.5 km/h
78 25-02-2020 06:25:00 9.9 C 8.12 g/m*3 7.32 C 19.3 km/h
79 25-02-2020 06:30:00 9.9 C 8.12 g/m*3 7.66 C 16.1 km/h
80 25-02-2020 06:35:00 9.9 C 8.12 g/m*3 7.66 C 16.1 km/h
81 25-02-2020 06:40:00 9.8 C 8.07 g/m*3 6.89 C 22.5 km/h
82 25-02-2020 06:45:00 9.8 C 8.07 g/m*3 7.54 C 16.1 km/h
83 25-02-2020 06:50:00 9.8 C 8.16 g/m*3 6.17 C 32.2 km/h
84 25-02-2020 06:55:00 9.7 C 8.11 g/m*3 6.04 C 32.2 km/h
85 25-02-2020 07:00:00 9.7 C 8.11 g/m*3 6.5 C 25.7 km/h
86 25-02-2020 07:05:00 9.7 C 8.11 g/m*3 7.07 C 19.3 km/h
87 25-02-2020 07:10:00 9.7 C 8.11 g/m*3 6.77 C 22.5 km/h
88 25-02-2020 07:15:00 9.6 C 8.06 g/m*3 7.94 C 11.3 km/h
89 25-02-2020 07:20:00 9.6 C 8.06 g/m*3 7.48 C 14.5 km/h
90 25-02-2020 07:25:00 9.6 C 8.15 g/m*3 7.7 C 12.9 km/h
91 25-02-2020 07:30:00 9.5 C 8.1 g/m*3 7.82 C 11.3 km/h
92 25-02-2020 07:35:00 9.5 C 8.1 g/m*3 8.09 C 9.7 km/h
93 25-02-2020 07:40:00 9.4 C 8.14 g/m*3 7.24 C 14.5 km/h
94 25-02-2020 07:45:00 9.3 C 8.09 g/m*3 7.85 C 9.7 km/h
95 25-02-2020 07:50:00 9.3 C 8.18 g/m*3 7.85 C 9.7 km/h
96 25-02-2020 07:55:00 9.2 C 8.13 g/m*3 7.73 C 9.7 km/h
97 25-02-2020 08:00:00 9.1 C 8.16 g/m*3 7.61 C 9.7 km/h
98 25-02-2020 08:05:00 9.1 C 8.16 g/m*3 7.93 C 8.1 km/h
99 25-02-2020 08:10:00 8.9 C 8.15 g/m*3 7.69 C 8.1 km/h
100 25-02-2020 08:15:00 8.9 C 8.15 g/m*3 7.69 C 8.1 km/h
Sensor: Nr:Datum:Temp:Abs-Feuchte:Windchill:Wind:
Aussen-T/F 101 25-02-2020 08:20:00 8.8 C 8.09 g/m*3 7.25 C 9.7 km/h
102 25-02-2020 08:25:00 8.8 C 8.18 g/m*3 7.98 C 6.4 km/h
103 25-02-2020 08:30:00 8.7 C 8.13 g/m*3 7.13 C 9.7 km/h
104 25-02-2020 08:35:00 8.7 C 8.13 g/m*3 6.85 C 11.3 km/h
105 25-02-2020 08:40:00 8.7 C 8.13 g/m*3 7.46 C 8.1 km/h
106 25-02-2020 08:45:00 8.7 C 8.13 g/m*3 8.7 C 4.8 km/h
107 25-02-2020 08:50:00 8.7 C 8.13 g/m*3 8.7 C 3.2 km/h
108 25-02-2020 08:55:00 8.7 C 8.13 g/m*3 8.7 C 4.8 km/h
109 25-02-2020 09:00:00 8.7 C 8.13 g/m*3 8.7 C 4.8 km/h
110 25-02-2020 09:05:00 8.8 C 8.18 g/m*3 8.8 C 3.2 km/h
111 25-02-2020 09:10:00 8.8 C 8.18 g/m*3 8.8 C 4.8 km/h
112 25-02-2020 09:15:00 8.7 C 8.13 g/m*3 8.7 C 4.8 km/h
113 25-02-2020 09:20:00 8.7 C 8.13 g/m*3 8.7 C 1.6 km/h
114 25-02-2020 09:25:00 8.7 C 8.13 g/m*3 7.87 C 6.4 km/h
115 25-02-2020 09:30:00 8.7 C 8.13 g/m*3 7.87 C 6.4 km/h
116 25-02-2020 09:35:00 8.7 C 8.13 g/m*3 8.7 C 4.8 km/h
117 25-02-2020 09:40:00 8.8 C 8.18 g/m*3 8.8 C 1.6 km/h
118 25-02-2020 09:45:00 8.8 C 8.09 g/m*3 7.25 C 9.7 km/h
119 25-02-2020 09:50:00 8.7 C 7.96 g/m*3 7.13 C 9.7 km/h
120 25-02-2020 09:55:00 8.5 C 7.68 g/m*3 6.36 C 12.9 km/h
121 25-02-2020 10:00:00 8.4 C 7.47 g/m*3 5.8 C 16.1 km/h
122 25-02-2020 10:05:00 8.4 C 7.21 g/m*3 6.01 C 14.5 km/h
123 25-02-2020 10:10:00 8.4 C 7.13 g/m*3 6.49 C 11.3 km/h
124 25-02-2020 10:15:00 8.4 C 7.13 g/m*3 6.01 C 14.5 km/h
125 25-02-2020 10:20:00 8.4 C 7.13 g/m*3 6.49 C 11.3 km/h
Sensor: Nr:Datum:Temp:Abs-Feuchte:Windchill:Wind:
Aussen-T/F 126 25-02-2020 10:25:00 8.4 C 7.21 g/m*3 7.11 C 8.1 km/h
127 25-02-2020 10:30:00 8.4 C 7.21 g/m*3 6.78 C 9.7 km/h
128 25-02-2020 10:35:00 8.6 C 7.22 g/m*3 6.25 C 14.5 km/h
129 25-02-2020 10:40:00 8.7 C 7.18 g/m*3 6.38 C 14.5 km/h
130 25-02-2020 10:45:00 8.8 C 7.14 g/m*3 6.3 C 16.1 km/h
131 25-02-2020 10:50:00 9 C 7.23 g/m*3 6.54 C 16.1 km/h
132 25-02-2020 10:55:00 9.2 C 7.32 g/m*3 7.21 C 12.9 km/h
133 25-02-2020 11:00:00 9.3 C 7.19 g/m*3 6.56 C 19.3 km/h
134 25-02-2020 11:05:00 9.3 C 7.1 g/m*3 7.12 C 14.5 km/h
135 25-02-2020 11:10:00 9.2 C 7.05 g/m*3 6.99 C 14.5 km/h
136 25-02-2020 11:15:00 8.9 C 7.01 g/m*3 6.62 C 14.5 km/h
137 25-02-2020 11:20:00 8.7 C 6.92 g/m*3 6.6 C 12.9 km/h
138 25-02-2020 11:25:00 8.6 C 6.79 g/m*3 6.05 C 16.1 km/h
139 25-02-2020 11:30:00 8.6 C 6.7 g/m*3 7.01 C 9.7 km/h
140 25-02-2020 11:35:00 8.5 C 6.57 g/m*3 6.13 C 14.5 km/h
141 25-02-2020 11:40:00 8.4 C 6.62 g/m*3 7.11 C 8.1 km/h
142 25-02-2020 11:45:00 8.4 C 6.62 g/m*3 6.78 C 9.7 km/h
143 25-02-2020 11:50:00 8.4 C 6.62 g/m*3 6.24 C 12.9 km/h
144 25-02-2020 11:55:00 8.5 C 6.57 g/m*3 7.22 C 8.1 km/h
145 25-02-2020 12:00:00 8.6 C 6.53 g/m*3 7.34 C 8.1 km/h
146 25-02-2020 12:05:00 8.7 C 6.75 g/m*3 8.7 C 3.2 km/h
147 25-02-2020 12:10:00 8.9 C 6.66 g/m*3 7.37 C 9.7 km/h
148 25-02-2020 12:15:00 9.2 C 6.61 g/m*3 8.05 C 8.1 km/h
149 25-02-2020 12:20:00 9.6 C 6.78 g/m*3 8.21 C 9.7 km/h
150 25-02-2020 12:25:00 9.8 C 6.49 g/m*3 8.45 C 9.7 km/h
Sensor: Nr:Datum:Temp:Abs-Feuchte:Windchill:Wind:
Aussen-T/F 151 25-02-2020 12:30:00 9.9 C 6.44 g/m*3 7.16 C 20.9 km/h
152 25-02-2020 12:35:00 9.9 C 6.44 g/m*3 7.48 C 17.7 km/h
153 25-02-2020 12:40:00 9.9 C 6.44 g/m*3 7.02 C 22.5 km/h
154 25-02-2020 12:45:00 9.9 C 6.35 g/m*3 7.48 C 17.7 km/h
155 25-02-2020 12:50:00 9.9 C 6.35 g/m*3 7.16 C 20.9 km/h
156 25-02-2020 12:55:00 9.9 C 6.63 g/m*3 7.48 C 17.7 km/h
157 25-02-2020 13:00:00 9.9 C 6.63 g/m*3 7.48 C 17.7 km/h
158 25-02-2020 13:05:00 9.9 C 6.72 g/m*3 7.85 C 14.5 km/h
159 25-02-2020 13:10:00 9.9 C 6.82 g/m*3 7.48 C 17.7 km/h
160 25-02-2020 13:15:00 10.1 C 6.9 g/m*3 8.1 C 14.5 km/h
161 25-02-2020 13:20:00 10.2 C 6.85 g/m*3 7.86 C 17.7 km/h
162 25-02-2020 13:25:00 10.3 C 6.9 g/m*3 8.55 C 12.9 km/h
163 25-02-2020 13:30:00 10.2 C 6.76 g/m*3 7.7 C 19.3 km/h
164 25-02-2020 13:35:00 10.2 C 6.66 g/m*3 8.22 C 14.5 km/h
165 25-02-2020 13:40:00 10.3 C 6.51 g/m*3 7.98 C 17.7 km/h
166 25-02-2020 13:45:00 10.3 C 6.51 g/m*3 7.27 C 25.7 km/h
167 25-02-2020 13:50:00 10.3 C 6.51 g/m*3 7.67 C 20.9 km/h
168 25-02-2020 13:55:00 10.2 C 6.38 g/m*3 7.7 C 19.3 km/h
169 25-02-2020 14:00:00 10.3 C 6.7 g/m*3 7.98 C 17.7 km/h
170 25-02-2020 14:05:00 10.5 C 6.5 g/m*3 8.23 C 17.7 km/h
171 25-02-2020 14:10:00 10.5 C 6.5 g/m*3 8.59 C 14.5 km/h
172 25-02-2020 14:15:00 10.4 C 6.17 g/m*3 7.95 C 19.3 km/h
173 25-02-2020 14:20:00 10.3 C 6.22 g/m*3 7.53 C 22.5 km/h
174 25-02-2020 14:25:00 10.2 C 6.38 g/m*3 8.03 C 16.1 km/h
175 25-02-2020 14:30:00 10.1 C 6.34 g/m*3 7.28 C 22.5 km/h
Sensor: Nr:Datum:Temp:Abs-Feuchte:Windchill:Wind:
Aussen-T/F 176 25-02-2020 14:35:00 10.1 C 6.43 g/m*3 7.91 C 16.1 km/h
177 25-02-2020 14:40:00 10.2 C 6.38 g/m*3 7.7 C 19.3 km/h
178 25-02-2020 14:45:00 10.3 C 6.42 g/m*3 7.67 C 20.9 km/h
179 25-02-2020 14:50:00 10.3 C 6.51 g/m*3 8.55 C 12.9 km/h
180 25-02-2020 14:55:00 10.2 C 6.57 g/m*3 8.03 C 16.1 km/h
181 25-02-2020 15:00:00 10.1 C 6.62 g/m*3 8.54 C 11.3 km/h
182 25-02-2020 15:05:00 9.9 C 6.63 g/m*3 8.87 C 8.1 km/h
183 25-02-2020 15:10:00 9.8 C 6.49 g/m*3 8.75 C 8.1 km/h
184 25-02-2020 15:15:00 9.8 C 6.59 g/m*3 8.75 C 8.1 km/h
185 25-02-2020 15:20:00 9.9 C 6.54 g/m*3 8.06 C 12.9 km/h
186 25-02-2020 15:25:00 10 C 6.48 g/m*3 7.98 C 14.5 km/h
187 25-02-2020 15:30:00 10.1 C 6.34 g/m*3 7.28 C 22.5 km/h
188 25-02-2020 15:35:00 10.2 C 6.19 g/m*3 7.7 C 19.3 km/h
189 25-02-2020 15:40:00 10.3 C 6.22 g/m*3 7.98 C 17.7 km/h
190 25-02-2020 15:45:00 10.4 C 6.17 g/m*3 7.95 C 19.3 km/h
191 25-02-2020 15:50:00 10.4 C 6.36 g/m*3 9.16 C 9.7 km/h
192 25-02-2020 15:55:00 10.6 C 6.44 g/m*3 9.14 C 11.3 km/h
193 25-02-2020 16:00:00 10.7 C 6.48 g/m*3 9.52 C 9.7 km/h
194 25-02-2020 16:05:00 10.6 C 6.54 g/m*3 9.69 C 8.1 km/h
195 25-02-2020 16:10:00 10.4 C 6.46 g/m*3 8.67 C 12.9 km/h
196 25-02-2020 16:15:00 10.3 C 6.42 g/m*3 9.04 C 9.7 km/h
197 25-02-2020 16:20:00 10.3 C 6.42 g/m*3 8.78 C 11.3 km/h
198 25-02-2020 16:25:00 10.2 C 6.28 g/m*3 8.66 C 11.3 km/h
199 25-02-2020 16:30:00 10.2 C 6.19 g/m*3 8.22 C 14.5 km/h
200 25-02-2020 16:35:00 10.2 C 6.19 g/m*3 8.43 C 12.9 km/h
Sensor: Nr:Datum:Temp:Abs-Feuchte:Windchill:Wind:
Aussen-T/F 201 25-02-2020 16:40:00 10.3 C 6.32 g/m*3 8.78 C 11.3 km/h
202 25-02-2020 16:45:00 10.6 C 6.34 g/m*3 8.92 C 12.9 km/h
203 25-02-2020 16:50:00 10.8 C 6.33 g/m*3 8.61 C 17.7 km/h
204 25-02-2020 16:55:00 10.6 C 6.05 g/m*3 8.71 C 14.5 km/h
205 25-02-2020 17:00:00 10.3 C 6.13 g/m*3 7.98 C 17.7 km/h
206 25-02-2020 17:05:00 10.2 C 6.28 g/m*3 8.43 C 12.9 km/h
207 25-02-2020 17:10:00 10.1 C 6.34 g/m*3 9.48 C 6.4 km/h
208 25-02-2020 17:15:00 10.2 C 6.57 g/m*3 9.6 C 6.4 km/h
209 25-02-2020 17:20:00 10.3 C 6.51 g/m*3 8.78 C 11.3 km/h
210 25-02-2020 17:25:00 10.2 C 6.57 g/m*3 8.66 C 11.3 km/h
211 25-02-2020 17:30:00 10 C 6.48 g/m*3 7.78 C 16.1 km/h
212 25-02-2020 17:35:00 9.8 C 6.31 g/m*3 7.36 C 17.7 km/h
213 25-02-2020 17:40:00 9.6 C 6.32 g/m*3 7.48 C 14.5 km/h
214 25-02-2020 17:45:00 9.4 C 6.33 g/m*3 7.7 C 11.3 km/h
215 25-02-2020 17:50:00 9.2 C 6.25 g/m*3 7.73 C 9.7 km/h
216 25-02-2020 17:55:00 9.2 C 6.43 g/m*3 6.99 C 14.5 km/h
217 25-02-2020 18:00:00 9.1 C 6.39 g/m*3 6.87 C 14.5 km/h
218 25-02-2020 18:05:00 9.1 C 6.39 g/m*3 6.87 C 14.5 km/h
219 25-02-2020 18:10:00 9.1 C 6.3 g/m*3 7.09 C 12.9 km/h
220 25-02-2020 18:15:00 9 C 6.35 g/m*3 7.21 C 11.3 km/h
221 25-02-2020 18:20:00 8.9 C 6.31 g/m*3 7.69 C 8.1 km/h
222 25-02-2020 18:25:00 8.8 C 6.35 g/m*3 8.8 C 4.8 km/h
223 25-02-2020 18:30:00 8.8 C 6.35 g/m*3 8.8 C 4.8 km/h
224 25-02-2020 18:35:00 8.7 C 6.4 g/m*3 7.46 C 8.1 km/h
225 25-02-2020 18:40:00 8.7 C 6.4 g/m*3 7.46 C 8.1 km/h
Sensor: Nr:Datum:Temp:Abs-Feuchte:Windchill:Wind:
Aussen-T/F 226 25-02-2020 18:45:00 8.7 C 6.4 g/m*3 7.46 C 8.1 km/h
227 25-02-2020 18:50:00 8.7 C 6.4 g/m*3 6.38 C 14.5 km/h
228 25-02-2020 18:55:00 8.6 C 6.44 g/m*3 6.48 C 12.9 km/h
229 25-02-2020 19:00:00 8.3 C 6.49 g/m*3 6.66 C 9.7 km/h
230 25-02-2020 19:05:00 8.1 C 6.57 g/m*3 8.1 C 4.8 km/h
231 25-02-2020 19:10:00 7.8 C 6.45 g/m*3 6.4 C 8.1 km/h
232 25-02-2020 19:15:00 7.6 C 6.53 g/m*3 7.6 C 3.2 km/h
233 25-02-2020 19:20:00 7.4 C 6.44 g/m*3 7.4 C 4.8 km/h
234 25-02-2020 19:25:00 7.3 C 6.4 g/m*3 7.3 C 3.2 km/h
235 25-02-2020 19:30:00 7.2 C 6.44 g/m*3 7.2 C 3.2 km/h
236 25-02-2020 19:35:00 7.1 C 6.47 g/m*3 7.1 C 0 km/h
237 25-02-2020 19:40:00 7.1 C 6.63 g/m*3 7.1 C 0 km/h
238 25-02-2020 19:45:00 7.1 C 6.71 g/m*3 7.1 C 0 km/h
239 25-02-2020 19:50:00 7 C 6.66 g/m*3 7 C 0 km/h
240 25-02-2020 19:55:00 6.9 C 6.7 g/m*3 6.9 C 1.6 km/h
241 25-02-2020 20:00:00 6.8 C 6.65 g/m*3 6.8 C 1.6 km/h
242 25-02-2020 20:05:00 6.7 C 6.69 g/m*3 6.7 C 0 km/h
243 25-02-2020 20:10:00 6.6 C 6.72 g/m*3 6.6 C 3.2 km/h
244 25-02-2020 20:15:00 6.5 C 6.67 g/m*3 6.5 C 1.6 km/h
245 25-02-2020 20:20:00 6.4 C 6.71 g/m*3 6.4 C 0 km/h
246 25-02-2020 20:25:00 6.4 C 6.71 g/m*3 6.4 C 1.6 km/h
247 25-02-2020 20:30:00 6.4 C 6.71 g/m*3 6.4 C 3.2 km/h
248 25-02-2020 20:35:00 6.4 C 6.71 g/m*3 6.4 C 3.2 km/h
249 25-02-2020 20:40:00 6.4 C 6.71 g/m*3 6.4 C 4.8 km/h
250 25-02-2020 20:45:00 6.5 C 6.75 g/m*3 6.5 C 3.2 km/h
Sensor: Nr:Datum:Temp:Abs-Feuchte:Windchill:Wind:
Aussen-T/F 251 25-02-2020 20:50:00 6.6 C 6.79 g/m*3 4.63 C 9.7 km/h
252 25-02-2020 20:55:00 6.8 C 6.81 g/m*3 4.04 C 14.5 km/h
253 25-02-2020 21:00:00 6.8 C 6.81 g/m*3 5.22 C 8.1 km/h
254 25-02-2020 21:05:00 6.8 C 6.73 g/m*3 6.8 C 3.2 km/h
255 25-02-2020 21:10:00 6.7 C 6.69 g/m*3 6.7 C 3.2 km/h
256 25-02-2020 21:15:00 6.6 C 6.72 g/m*3 6.6 C 1.6 km/h
257 25-02-2020 21:20:00 6.4 C 6.63 g/m*3 5.21 C 6.4 km/h
258 25-02-2020 21:25:00 6.3 C 6.59 g/m*3 6.3 C 3.2 km/h
259 25-02-2020 21:30:00 6.3 C 6.66 g/m*3 6.3 C 4.8 km/h
260 25-02-2020 21:35:00 6.2 C 6.62 g/m*3 6.2 C 1.6 km/h
261 25-02-2020 21:40:00 6.1 C 6.58 g/m*3 6.1 C 4.8 km/h
262 25-02-2020 21:45:00 6.1 C 6.58 g/m*3 3.43 C 12.9 km/h
263 25-02-2020 21:50:00 6.1 C 6.28 g/m*3 2.18 C 22.5 km/h
264 25-02-2020 21:55:00 6.2 C 6.1 g/m*3 3.07 C 16.1 km/h
265 25-02-2020 22:00:00 6.2 C 6.03 g/m*3 3.56 C 12.9 km/h
266 25-02-2020 22:05:00 6.2 C 5.88 g/m*3 2.48 C 20.9 km/h
267 25-02-2020 22:10:00 6.2 C 5.81 g/m*3 2.15 C 24.1 km/h
268 25-02-2020 22:15:00 6.2 C 5.74 g/m*3 2.86 C 17.7 km/h
269 25-02-2020 22:20:00 6.1 C 5.77 g/m*3 1.86 C 25.7 km/h
270 25-02-2020 22:25:00 6 C 5.59 g/m*3 2.82 C 16.1 km/h
271 25-02-2020 22:30:00 5.9 C 5.55 g/m*3 2.93 C 14.5 km/h
272 25-02-2020 22:35:00 5.8 C 5.52 g/m*3 3.07 C 12.9 km/h
273 25-02-2020 22:40:00 5.7 C 5.55 g/m*3 5.7 C 3.2 km/h
274 25-02-2020 22:45:00 5.5 C 5.55 g/m*3 5.5 C 4.8 km/h
275 25-02-2020 22:50:00 5.3 C 5.54 g/m*3 3.46 C 8.1 km/h
Sensor: Nr:Datum:Temp:Abs-Feuchte:Windchill:Wind:
Aussen-T/F 276 25-02-2020 22:55:00 5.2 C 5.51 g/m*3 3.82 C 6.4 km/h
277 25-02-2020 23:00:00 5 C 5.5 g/m*3 3.59 C 6.4 km/h
278 25-02-2020 23:05:00 4.9 C 5.47 g/m*3 2.99 C 8.1 km/h
279 25-02-2020 23:10:00 4.8 C 5.5 g/m*3 3.36 C 6.4 km/h
280 25-02-2020 23:15:00 4.7 C 5.53 g/m*3 4.7 C 1.6 km/h
281 25-02-2020 23:20:00 4.6 C 5.49 g/m*3 4.6 C 3.2 km/h
282 25-02-2020 23:25:00 4.6 C 5.56 g/m*3 3.13 C 6.4 km/h
283 25-02-2020 23:30:00 4.7 C 5.6 g/m*3 4.7 C 4.8 km/h
284 25-02-2020 23:35:00 4.8 C 5.63 g/m*3 4.8 C 4.8 km/h
285 25-02-2020 23:40:00 4.9 C 5.6 g/m*3 2.61 C 9.7 km/h
286 25-02-2020 23:45:00 5.2 C 5.65 g/m*3 3.34 C 8.1 km/h
287 25-02-2020 23:50:00 5.4 C 5.65 g/m*3 3.2 C 9.7 km/h
288 25-02-2020 23:55:00 5.6 C 5.73 g/m*3 3.11 C 11.3 km/h

Legende:
   Min
   Max


Maximal/Minimal-Werte vom 25.02.2020 - 25.02.2020

Sensor Min Max Avg
Temp
(Aussen-T/F)
4.6 °C
25-02-2020  23:20:00
11.1 °C
25-02-2020  00:00:00
9.08 °C
Abs-Feuchte
(Aussen-T/F)
5.47 g/m*3
25-02-2020  23:05:00
8.55 g/m*3
25-02-2020  02:20:00
7.2 g/m*3
Windchill
(Aussen-T/F)
1.86 C
25-02-2020  22:20:00
11.1 C
25-02-2020  00:00:00
7.44 C

Die Daten stammen von einer Davis Vantage Pro 2 Wetter-Station und werden unter Linux mit der Software wview2wettercgi und aufbereitet. Alle Angaben erfolgen ohne Gewähr für ihre Vollständigkeit oder Richtigkeit.
Kontakt: Rainer Krienke krienke@uni-koblenz.de . Meine Webseiten an der Uni Koblenz oder privat.
Version: $Revision: 0.78 $